Wind_Speed
11 12 14 15 17 19 21 22 23 24 25 25 26 27 28 29 30 31 34 36 37 38 38 40 41 42 43 44 45 46 46 47 49 50 51 51 51 52 53 52 51 52 53 53
14 13 14 15 16 18 19 20 22 24 26 26 25 26 27 28 29 30 31 33 35 37 37 38 39 40 41 42 44 45 45 46 48 49 50 50 51 51 52 53 52 52 52 53
16 16 16 16 16 17 19 20 21 22 23 25 25 26 27 28 29 30 31 31 33 34 36 37 38 39 40 41 43 44 45 45 46 47 48 49 51 51 52 52 51 52 52 52
18 18 19 18 18 18 20 20 21 23 24 24 25 25 26 27 29 30 31 31 31 32 33 35 37 38 39 40 41 43 44 44 44 44 46 47 48 48 50 50 50 51 51 50
19 20 20 19 19 20 21 21 21 23 24 26 26 26 26 28 29 30 31 31 31 31 32 33 34 35 37 38 39 40 42 43 43 43 43 44 45 47 48 49 49 50 50 50
20 21 21 20 21 22 24 23 23 23 24 25 27 27 27 29 30 31 31 32 31 31 31 32 33 34 35 36 36 37 38 40 42 42 42 42 43 44 45 46 48 48 48 48
20 21 21 21 21 23 24 23 24 24 24 25 26 26 27 28 29 29 29 30 30 29 30 30 31 32 33 35 36 36 38 39 40 41 41 42 43 43 43 45 45 46 46 47
22 22 21 21 21 22 23 24 24 24 24 24 24 25 26 26 27 27 28 29 29 29 29 30 31 32 33 34 35 36 37 38 39 40 41 42 42 43 43 44 44 43 44 44
23 23 22 21 21 22 23 23 24 24 25 25 26 26 26 27 27 27 28 28 29 29 29 30 31 32 32 33 34 35 36 36 37 38 39 40 40 41 41 41 42 43 43 43
23 23 22 22 23 23 23 23 23 23 24 25 25 26 27 28 27 27 27 27 28 28 29 30 31 32 32 33 33 34 34 34 35 36 37 39 39 39 39 39 40 40 42 42
23 23 23 23 23 24 24 24 24 23 23 24 25 25 25 26 26 26 27 27 27 27 28 29 30 31 32 33 33 33 33 34 35 36 37 38 38 38 38 38 38 39 39 40
25 24 24 24 24 24 25 25 26 25 25 25 25 25 26 26 27 26 26 27 27 27 28 28 29 30 31 32 33 34 34 34 35 35 36 36 37 37 37 38 38 38 38 38
26 26 26 26 26 26 26 26 26 26 26 26 26 27 27 28 28 27 27 26 27 27 28 28 29 30 31 32 32 33 33 34 35 35 34 34 35 35 36 36 36 36 36 37
28 28 27 27 26 26 26 26 26 26 26 26 27 27 27 27 27 27 28 27 27 28 28 29 29 29 30 30 30 31 32 32 33 34 34 34 34 34 35 35 35 36 36 37
28 28 27 26 26 26 27 26 26 27 27 27 27 27 27 27 28 28 28 28 28 28 28 28 28 29 29 29 29 30 31 31 32 32 33 33 33 33 33 34 34 35 35 36
29 29 28 28 28 27 27 27 27 27 28 28 28 28 28 28 28 29 29 28 28 28 28 28 28 28 29 29 29 30 31 32 32 32 32 32 32 33 33 33 33 34 34 34
28 28 28 28 28 28 28 28 28 28 28 28 29 28 28 28 28 29 29 29 29 29 29 28 28 28 29 29 30 30 31 32 32 32 32 32 33 33 33 33 33 33 33 33
28 28 29 29 29 28 28 28 29 29 29 28 29 29 29 28 28 29 29 30 30 30 30 29 29 29 29 29 29 30 31 32 32 32 33 33 33 33 33 33 33 33 33 33
29 29 29 29 29 29 28 28 29 29 28 28 28 28 29 28 28 28 29 29 30 30 30 30 30 29 30 30 30 30 30 31 32 32 33 33 32 32 32 32 32 32 33 32
30 29 29 29 29 29 29 29 29 29 28 28 28 28 27 28 28 28 29 29 28 29 29 30 30 30 30 30 30 30 30 30 31 32 32 32 31 31 31 31 31 32 32 32
30 30 30 29 29 29 29 28 28 28 28 28 28 27 27 27 28 28 28 28 28 28 28 28 29 29 29 29 29 29 29 29 29 30 31 31 31 31 31 31 31 32 31 31
30 30 30 29 29 29 29 29 29 28 28 28 28 28 27 27 27 27 27 27 27 28 28 28 28 29 29 29 29 29 29 29 29 29 30 30 31 31 31 31 32 32 31 31
30 30 30 30 30 30 29 29 29 29 28 28 28 29 29 29 28 28 28 28 28 28 28 28 28 28 29 29 29 29 29 29 29 29 30 30 31 31 31 31 31 31 30 30
32 32 31 31 30 30 30 30 30 30 30 30 30 30 30 30 29 29 29 28 28 28 28 28 28 28 28 29 29 28 28 28 28 28 27 27 27 27 28 28 28 28 28 28
33 33 32 31 31 31 31 30 30 30 31 30 30 30 30 30 30 29 29 29 29 28 28 28 27 27 27 27 27 27 27 26 25 24 24 23 23 23 24 25 25 25 25 25
34 34 33 32 31 30 30 29 29 29 30 30 30 30 30 29 29 29 29 28 27 27 27 26 25 25 25 25 25 25 25 25 24 23 23 22 22 22 23 23 23 24 23 23
33 33 32 32 31 30 30 30 30 30 30 30 30 29 29 28 28 28 27 26 26 25 25 24 24 23 23 23 23 23 23 23 22 22 22 22 22 22 22 22 22 22 21 21
Wind_Direction
275 272 264 261 260 258 257 257 256 253 253 254 252 253 254 254 256 254 252 252 252 253 253 254 254 254 255 256 255 254 255 256 257 257 258 259 259 260 260 262 262 263 263 264
274 275 271 266 264 261 260 259 259 257 254 254 254 254 255 255 255 255 254 254 254 254 255 255 255 256 257 258 256 255 257 258 259 260 260 261 260 261 262 263 263 264 263 263
277 277 275 271 270 267 263 262 263 262 258 254 253 255 256 256 257 257 257 258 257 257 258 258 257 258 258 259 258 258 259 260 261 262 261 261 261 263 263 263 263 263 263 263
280 278 277 275 273 272 269 265 265 262 258 257 257 257 258 259 259 260 261 260 260 260 260 260 260 259 260 260 260 260 261 261 262 262 262 262 262 263 264 263 263 264 263 263
283 281 279 277 273 273 272 269 268 266 261 259 259 260 261 260 261 262 263 263 262 262 262 262 262 262 261 262 263 262 261 260 261 262 263 264 264 264 264 264 264 264 263 264
285 284 283 281 276 275 274 271 269 268 264 261 261 262 262 262 262 263 264 264 263 263 263 264 264 263 262 263 264 265 264 262 262 263 264 265 265 265 266 266 265 265 265 266
285 285 285 285 282 280 277 274 270 269 267 265 265 265 264 263 263 264 264 264 263 263 263 265 265 264 264 265 266 266 266 265 264 265 266 267 267 266 267 267 267 268 267 267
283 285 287 288 283 280 279 275 272 271 270 268 267 267 266 265 265 266 266 265 265 265 266 266 265 265 266 267 268 268 268 267 266 266 266 267 268 269 269 269 270 270 269 268
283 285 287 286 283 281 278 276 275 273 273 271 268 268 267 266 267 268 268 267 266 265 266 267 267 268 268 269 269 269 269 268 268 268 268 268 269 270 271 271 271 270 270 270
285 285 285 283 281 281 280 278 277 276 275 272 270 269 269 270 270 269 267 267 267 266 267 268 270 270 270 270 271 271 270 269 268 269 270 269 269 270 271 271 271 271 272 272
283 283 283 281 280 280 280 279 277 276 274 271 269 268 269 270 271 270 269 268 268 268 270 271 272 272 272 271 271 272 272 272 271 271 271 271 270 270 270 271 272 273 273 272
279 279 279 279 279 279 279 279 278 276 273 271 271 270 270 270 270 270 270 269 269 270 271 273 273 274 273 272 272 272 273 273 273 273 273 273 272 271 271 271 273 273 273 272
279 278 278 277 278 279 279 280 279 276 273 273 273 273 272 271 271 271 271 271 272 271 272 274 275 275 274 273 273 273 273 274 274 274 275 274 274 273 273 273 273 274 274 274
278 278 278 279 279 279 278 278 277 276 275 274 274 273 272 271 271 271 272 272 273 274 275 276 276 276 276 275 275 274 274 275 275 275 277 276 275 275 274 274 274 274 275 276
279 278 278 278 277 277 277 277 277 276 275 275 275 274 273 272 271 272 273 272 273 274 275 276 277 277 277 276 275 275 275 275 276 277 277 277 276 277 276 276 276 276 276 276
280 279 277 276 276 276 277 277 278 277 276 275 275 274 274 273 272 273 273 272 272 273 275 276 277 277 276 276 276 275 275 275 276 277 277 276 277 277 278 277 277 278 277 276
281 279 277 276 276 276 277 277 277 277 276 276 275 275 275 273 272 272 273 273 273 274 276 277 277 277 278 278 276 274 274 274 275 275 276 277 276 277 277 277 277 277 277 276
281 279 277 275 275 276 276 276 277 277 276 276 275 274 274 273 272 273 273 274 275 276 276 276 277 277 278 279 278 277 276 275 275 275 275 276 276 276 277 277 276 276 276 277
280 279 277 276 275 275 276 276 276 276 276 276 275 274 274 274 274 274 275 275 275 275 275 275 276 278 278 278 279 278 277 277 276 275 276 276 276 276 276 276 276 277 277 277
280 279 277 276 275 275 276 277 277 276 276 276 276 275 274 274 274 274 275 275 275 274 274 275 275 276 277 278 279 279 278 278 277 276 275 275 275 275 276 276 277 278 278 277
281 280 278 277 276 276 276 277 277 276 275 275 275 275 275 275 275 276 275 274 274 274 274 274 275 276 277 278 279 278 278 278 277 276 275 274 274 276 277 277 278 279 279 278
282 281 280 278 277 276 276 276 276 275 274 273 273 273 274 275 275 275 276 275 273 274 274 275 276 276 277 277 278 278 279 278 277 276 275 275 275 276 276 277 278 278 278 278
282 281 280 278 277 276 275 275 275 274 273 272 272 273 273 274 275 275 275 275 275 275 275 276 277 277 277 278 279 279 279 278 278 277 276 276 276 276 277 277 277 278 278 278
279 279 279 278 278 276 275 274 274 273 273 273 272 272 273 274 274 274 275 276 276 276 276 277 277 278 279 279 279 279 279 279 279 278 277 276 276 276 276 277 278 278 278 279
278 278 278 278 279 278 276 274 273 272 271 271 271 271 272 272 272 273 274 276 276 276 276 276 277 278 279 278 278 278 279 279 278 277 277 276 276 276 278 279 280 280 281 280
279 279 278 277 277 276 274 272 272 271 271 270 270 271 271 272 273 274 274 275 276 276 275 275 276 278 279 279 279 279 278 277 277 277 278 278 278 278 279 280 281 282 281 279
279 278 277 276 276 275 273 273 272 272 271 270 270 269 270 271 272 273 272 273 274 275 275 275 276 278 279 280 281 280 278 276 275 275 276 277 278 279 279 281 282 281 280 279
Height
5620 5619 5619 5619 5620 5620 5621 5622 5623 5625 5625 5626 5627 5628 5629 5630 5631 5632 5634 5635 5636 5638 5639 5640 5641 5642 5643 5644 5645 5646 5648 5649 5651 5652 5653 5654 5655 5657 5658 5658 5659 5660 5661 5662
5616 5615 5615 5615 5615 5615 5615 5616 5616 5617 5619 5619 5620 5621 5621 5622 5623 5624 5625 5626 5627 5628 5629 5630 5631 5632 5633 5633 5634 5635 5636 5638 5639 5639 5640 5641 5642 5644 5645 5645 5646 5647 5647 5648
5612 5611 5610 5611 5611 5610 5610 5611 5611 5611 5613 5612 5613 5613 5614 5615 5616 5616 5617 5618 5619 5619 5620 5621 5621 5622 5623 5623 5624 5624 5625 5626 5627 5627 5628 5628 5629 5630 5631 5631 5632 5633 5633 5634
5607 5607 5606 5609 5606 5605 5604 5605 5604 5604 5605 5605 5606 5606 5607 5607 5608 5608 5609 5609 5610 5610 5611 5611 5611 5612 5612 5613 5613 5614 5614 5614 5615 5615 5615 5616 5616 5617 5617 5618 5618 5619 5619 5620
5601 5600 5600 5601 5600 5598 5598 5598 5598 5597 5597 5598 5598 5599 5600 5599 5600 5600 5600 5601 5601 5601 5601 5602 5602 5602 5602 5602 5602 5602 5602 5603 5603 5603 5604 5604 5604 5604 5604 5605 5605 5605 5606 5606
5595 5593 5593 5595 5593 5591 5591 5591 5591 5590 5590 5590 5590 5592 5593 5591 5591 5592 5592 5592 5592 5592 5592 5593 5593 5593 5593 5592 5592 5592 5592 5592 5592 5592 5592 5592 5592 5592 5592 5592 5592 5592 5592 5592
5589 5587 5587 5588 5585 5584 5585 5585 5583 5582 5582 5582 5582 5583 5583 5583 5583 5583 5583 5583 5583 5583 5583 5583 5583 5583 5583 5583 5582 5582 5581 5581 5581 5581 5581 5581 5580 5580 5580 5580 5579 5579 5579 5579
5583 5581 5583 5580 5578 5577 5576 5575 5574 5574 5574 5574 5574 5574 5574 5574 5574 5574 5574 5574 5574 5575 5574 5574 5574 5573 5573 5573 5572 5572 5571 5571 5570 5570 5569 5569 5568 5568 5567 5567 5567 5567 5566 5566
5577 5578 5575 5573 5571 5570 5568 5567 5567 5566 5566 5566 5566 5566 5566 5566 5566 5566 5566 5565 5565 5565 5565 5565 5564 5564 5563 5563 5562 5561 5561 5560 5559 5559 5558 5558 5557 5557 5556 5555 5555 5554 5554 5554
5569 5569 5567 5565 5564 5562 5561 5560 5559 5558 5558 5557 5557 5557 5557 5557 5557 5557 5557 5556 5556 5556 5556 5555 5555 5554 5554 5553 5552 5551 5551 5550 5549 5548 5547 5547 5546 5545 5545 5544 5543 5542 5542 5542
5561 5561 5559 5558 5556 5555 5553 5552 5551 5550 5550 5549 5549 5549 5548 5548 5548 5548 5548 5547 5547 5547 5546 5546 5545 5544 5544 5543 5542 5542 5541 5540 5539 5538 5537 5536 5535 5534 5534 5533 5532 5531 5531 5530
5554 5553 5551 5550 5548 5547 5545 5544 5542 5542 5541 5540 5540 5540 5540 5539 5539 5539 5539 5538 5538 5538 5537 5536 5536 5535 5534 5533 5532 5531 5531 5530 5529 5528 5526 5525 5524 5524 5522 5522 5521 5520 5519 5519
5544 5543 5541 5541 5539 5538 5536 5535 5534 5533 5532 5532 5532 5531 5531 5531 5530 5530 5530 5529 5529 5529 5528 5527 5526 5525 5524 5523 5522 5521 5520 5519 5518 5517 5516 5515 5514 5513 5512 5511 5510 5509 5509 5508
5535 5533 5532 5532 5531 5530 5528 5527 5525 5525 5524 5523 5523 5522 5522 5521 5521 5521 5521 5520 5520 5519 5519 5518 5517 5516 5514 5513 5512 5511 5510 5509 5508 5507 5506 5505 5504 5503 5502 5501 5500 5499 5498 5497
5525 5524 5523 5522 5521 5520 5519 5518 5517 5516 5515 5515 5514 5513 5513 5512 5512 5512 5512 5511 5511 5510 5509 5509 5508 5506 5505 5504 5503 5502 5501 5500 5499 5497 5496 5495 5494 5493 5492 5491 5490 5489 5488 5487
5515 5514 5513 5513 5512 5511 5510 5509 5508 5507 5506 5506 5505 5504 5504 5503 5503 5503 5502 5502 5501 5501 5500 5499 5498 5497 5496 5495 5494 5493 5491 5490 5489 5488 5487 5485 5484 5483 5482 5481 5480 5479 5478 5477
5505 5504 5503 5503 5502 5502 5501 5500 5499 5498 5497 5497 5496 5495 5495 5494 5494 5493 5493 5492 5492 5491 5490 5490 5489 5487 5486 5485 5484 5483 5482 5480 5479 5478 5477 5476 5475 5474 5473 5471 5470 5469 5468 5467
5495 5495 5494 5493 5492 5492 5491 5491 5490 5489 5488 5487 5486 5486 5485 5485 5484 5484 5483 5483 5482 5481 5481 5480 5479 5478 5476 5475 5474 5473 5471 5470 5469 5468 5467 5466 5465 5464 5463 5461 5460 5459 5458 5457
5485 5485 5484 5483 5483 5482 5482 5481 5480 5479 5478 5478 5477 5476 5475 5475 5474 5474 5473 5473 5472 5471 5471 5469 5468 5468 5466 5465 5464 5463 5461 5460 5459 5458 5457 5456 5455 5454 5453 5452 5451 5449 5448 5447
5475 5475 5474 5473 5473 5472 5472 5471 5470 5469 5469 5468 5467 5466 5466 5465 5465 5464 5463 5463 5462 5461 5460 5459 5458 5458 5456 5455 5454 5452 5451 5450 5449 5448 5447 5446 5445 5444 5443 5442 5441 5440 5438 5437
5465 5464 5464 5463 5463 5462 5462 5461 5460 5460 5459 5458 5457 5457 5457 5456 5455 5454 5454 5453 5453 5451 5451 5450 5449 5448 5447 5445 5444 5442 5441 5440 5439 5438 5437 5436 5435 5434 5433 5432 5431 5430 5429 5427
5455 5454 5454 5453 5453 5452 5452 5451 5450 5450 5449 5448 5448 5447 5447 5446 5446 5445 5445 5444 5443 5442 5441 5440 5439 5438 5437 5436 5434 5433 5432 5430 5429 5428 5427 5426 5426 5425 5424 5422 5421 5420 5419 5418
5445 5444 5444 5443 5442 5442 5441 5441 5440 5440 5439 5439 5438 5438 5437 5437 5436 5436 5435 5435 5433 5432 5431 5430 5429 5428 5427 5426 5425 5424 5422 5421 5420 5419 5418 5417 5416 5415 5414 5413 5411 5410 5409 5408
5435 5434 5433 5432 5432 5431 5431 5430 5430 5429 5429 5429 5428 5428 5427 5427 5426 5426 5425 5425 5424 5423 5422 5421 5420 5419 5417 5416 5415 5414 5413 5412 5411 5409 5408 5407 5406 5405 5404 5403 5402 5401 5400 5398
5423 5423 5422 5421 5421 5420 5420 5419 5419 5419 5418 5418 5418 5417 5417 5417 5416 5416 5415 5415 5414 5413 5412 5411 5410 5409 5408 5407 5406 5405 5404 5403 5402 5401 5400 5399 5398 5397 5396 5395 5393 5392 5391 5390
5412 5411 5411 5410 5410 5409 5408 5408 5408 5407 5407 5407 5407 5407 5407 5407 5406 5406 5405 5405 5404 5403 5403 5402 5401 5400 5399 5398 5397 5396 5396 5395 5394 5393 5392 5391 5390 5389 5388 5387 5385 5384 5383 5382
5400 5399 5399 5399 5398 5398 5397 5397 5397 5396 5396 5396 5396 5396 5396 5397 5397 5396 5396 5395 5395 5394 5393 5393 5392 5391 5391 5390 5389 5388 5387 5387 5386 5385 5385 5384 5383 5382 5381 5379 5378 5377 5376 5375